User: anonymous   Login
Location: Columbia
(38.9520°N, 92.3340°W)
Time: 01:47:18
(UTC-06:00)
Language:

FENGYUN 3A - Orbit

View from above orbital plane
View from above orbital plane
View from above satellite
View from above satellite

Ground track
Ground track

The orbit data is extracted from the following two-line orbital elements,

1 32958U 08026A   16042.75278599  .00000051  00000-0  43833-4 0  9999
2 32958  98.4709  88.3947 0008657 267.7822  92.2360 14.19603151399616
Epoch (UTC): 11 February 2016 18:04:00
Eccentricity: 0.0008657
inclination: 98.4709°
perigee height: 820 km
apogee height: 833 km
right ascension of ascending node: 88.3947°
argument of perigee: 267.7822°
revolutions per day: 14.19603151
mean anomaly at epoch: 92.2360°
orbit number at epoch: 39961

The dashed part of the orbit path shows where the satellite is in the earth's shadow,  

DLR